GPS BIIF-5

Last updated on Tue Sep 22 2026 00:03:02 GMT+0000 (Coordinated Universal Time)

1 39533U 14008A 26263.91182919 -.00000007 00000+0 00000+0 0 9991 2 39533 53.6635 145.4126 0083592 231.5499 127.7698 2.00566117 91600
UTC large
Height (km)
Speed (km/s)
/
Latitude / Longitude
Inclination (degrees)
Orbital Period (minutes)
Azimuth
Elevation
Range (km)
Doppler Factor

Next 0 passes for location: London (51.5072 / 0.1276)

No passes found over London.
GPS BIIF-5